Find Local Weather

World > North America > United States > Massachusetts

Charlton, Massachusetts Regional Weather

Lat: 42.13N, Lon: 71.97W
Wx Zone: MAZ012
Warning FLW WEATHER ALERT - (More Info. Click Here) Warning
Feedback
Expires:201808142000;;061080
ASUS41 KGYX 141910
RWRGYX
WEATHER ROUNDUP FOR MAINE AND NEW HAMPSHIRE
NATIONAL WEATHER SERVICE GRAY ME
300 PM EDT TUE AUG 14 2018


MAZ007-012-024-CTZ003-RIZ002-NYZ038-NYZ072-142000-
SOUTHERN NEW ENGLAND AND NY
  
CITY           SKY/WX    TMP DP  RH WIND       PRES   REMARKS
BOSTON         PTSUNNY   79  73  82 N8        29.86F                  
WORCESTER      PTSUNNY   73  69  87 NE6       29.90R                  
NANTUCKET      FAIR      77  74  90 S13       29.90F                  
PROVIDENCE     FAIR      83  74  74 S13       29.86F                  
HARTFORD       PTSUNNY   85  67  54 SW13G21   29.82F                  
ALBANY         FAIR      85  63  47 S13G22    29.80F                  
NEW YORK CITY  PTSUNNY   84  64  50 S13G18    29.81F                  
$$


SKY/WX - Weather  TMP - Temperature  DP - Dewpoint  RH - Relative Humidity
WIND - Wind Direction/Speed PRES - Barometric Pressure